sat.trackr.live / text

‹ back to catalog

UNKNOWN

NORAD 81078

UNKNOWN UNKNOWN UNKNOWN

§ Identity

Operator
Country
Launch date
Launch site
Launch vehicle
Mass (kg)
RCS (m²)

External: N2YO · Heavens-Above

§ Orbital elements

Epoch: 2026-05-29T13:38:39.219936Z

Period
128.29 min
Inclination
65.1101°
Eccentricity
0.0194331
Mean motion
11.22442514 rev/d
Perigee alt
1,884.2 km
Apogee alt
2,211.7 km
Semi-major
8,426.1 km
B*
-2.9572e-2
RAAN
353.4722°
Arg perigee
328.6606°
Mean anomaly
58.3153°
Rev number
51,346

§ Raw data

UNKNOWN1 81078U          26149.56850949 -.00001038  00000+0 -29572-1 0  99912 81078  65.1101 353.4722 0194331 328.6606  58.3153 11.22442514513468

JSON: /api/v1/satellites/81078 · /tle

For live sub-satellite position, see the globe view (requires WebGL).

§ Visibility from observer

Set your observer location to see the next 7 days of passes ≥ 10°. The values pass through the URL so the page stays shareable.

No JS? Fill the form by hand. The geolocation button needs JavaScript.